Tillbaka till svenska Fidonet
English   Information   Debug  
FILM   0/18
FNEWS_PUBLISH   4983
FN_SYSOP   42232
FN_SYSOP_OLD1   71952
FTP_FIDO   0/2
FTSC_PUBLIC   0/13976
FUNNY   0/4886
GENEALOGY.EUR   0/71
GET_INFO   105
GOLDED   0/408
HAM   3962/16712
HOLYSMOKE   0/6791
HOT_SITES   0/1
HTMLEDIT   0/71
HUB203   466
HUB_100   264
HUB_400   39
HUMOR   0/29
IC   0/2851
INTERNET   0/424
INTERUSER   0/3
IP_CONNECT   719
JAMNNTPD   0/233
JAMTLAND   0/47
KATTY_KORNER   0/41
LAN   0/16
LINUX-USER   0/19
LINUXHELP   0/1155
LINUX   0/22382
LINUX_BBS   0/957
mail   18.68
mail_fore_ok   249
MENSA   0/341
MODERATOR   0/102
MONTE   0/992
MOSCOW_OKLAHOMA   0/1245
MUFFIN   0/783
MUSIC   0/321
N203_STAT   938
N203_SYSCHAT   313
NET203   321
NET204   69
NET_DEV   0/10
NORD.ADMIN   0/101
NORD.CHAT   0/2572
NORD.FIDONET   189
NORD.HARDWARE   0/28
NORD.KULTUR   0/114
NORD.PROG   0/32
NORD.SOFTWARE   0/88
NORD.TEKNIK   0/58
NORD   0/453
OCCULT_CHAT   0/93
OS2BBS   0/787
OS2DOSBBS   0/580
OS2HW   0/42
OS2INET   0/37
OS2LAN   0/134
OS2PROG   0/36
OS2REXX   0/113
OS2USER-L   207
OS2   0/4831
OSDEBATE   0/18996
PASCAL   0/490
PERL   0/457
PHP   0/45
POINTS   0/405
POLITICS   0/29554
POL_INC   0/14731
PSION   103
R20_ADMIN   1133
R20_AMATORRADIO   0/2
R20_BEST_OF_FIDONET   16
R20_CHAT   0/897
R20_DEPP   0/3
R20_DEV   400
R20_ECHO2   1889
R20_ECHOPRES   0/35
R20_ESTAT   0/719
R20_FIDONETPROG...
...RAM.MYPOINT
  0/2
R20_FIDONETPROGRAM   0/22
R20_FIDONET   0/248
R20_FILEFIND   0/24
R20_FILEFOUND   0/22
R20_HIFI   0/3
R20_INFO2   3781
R20_INTERNET   0/12940
R20_INTRESSE   0/60
R20_INTR_KOM   0/99
R20_KANDIDAT.CHAT   42
R20_KANDIDAT   28
R20_KOM_DEV   112
R20_KONTROLL   0/13360
R20_KORSET   0/18
R20_LOKALTRAFIK   0/24
R20_MODERATOR   0/1852
R20_NC   76
R20_NET200   245
R20_NETWORK.OTH...
...ERNETS
  0/13
R20_OPERATIVSYS...
...TEM.LINUX
  0/44
R20_PROGRAMVAROR   0/1
R20_REC2NEC   534
R20_SFOSM   0/341
R20_SF   0/108
R20_SPRAK.ENGLISH   0/1
R20_SQUISH   107
R20_TEST   2
R20_WORST_OF_FIDONET   20
RAR   0/9
RA_MULTI   106
RA_UTIL   0/162
REGCON.EUR   0/2069
REGCON   0/13
SCIENCE   0/1206
SF   0/239
SHAREWARE_SUPPORT   0/5146
SHAREWRE   0/14
SIMPSONS   0/169
STATS_OLD1   0/2539.065
STATS_OLD2   0/2530
STATS_OLD3   0/2395.095
STATS_OLD4   0/1692.25
SURVIVOR   0/495
SYSOPS_CORNER   0/3
SYSOP   0/84
TAGLINES   0/112
TEAMOS2   0/4530
TECH   0/2617
TEST.444   0/105
TRAPDOOR   0/19
TREK   0/755
TUB   0/290
UFO   0/40
UNIX   0/1316
USA_EURLINK   0/102
USR_MODEMS   0/1
VATICAN   0/2740
VIETNAM_VETS   0/14
VIRUS   0/378
VIRUS_INFO   0/201
VISUAL_BASIC   0/473
WHITEHOUSE   0/5187
WIN2000   0/101
WIN32   0/30
WIN95   0/4291
WIN95_OLD1   0/70272
WINDOWS   0/1517
WWB_SYSOP   0/419
WWB_TECH   0/810
ZCC-PUBLIC   0/1
ZEC   4

 
4DOS   0/134
ABORTION   0/7
ALASKA_CHAT   0/506
ALLFIX_FILE   0/1313
ALLFIX_FILE_OLD1   0/7997
ALT_DOS   0/152
AMATEUR_RADIO   0/1039
AMIGASALE   0/14
AMIGA   0/331
AMIGA_INT   0/1
AMIGA_PROG   0/20
AMIGA_SYSOP   0/26
ANIME   0/15
ARGUS   0/924
ASCII_ART   0/340
ASIAN_LINK   0/651
ASTRONOMY   0/417
AUDIO   0/92
AUTOMOBILE_RACING   0/105
BABYLON5   0/17862
BAG   135
BATPOWER   0/361
BBBS.ENGLISH   0/382
BBSLAW   0/109
BBS_ADS   0/5290
BBS_INTERNET   0/507
BIBLE   0/3563
BINKD   0/1119
BINKLEY   0/215
BLUEWAVE   0/2173
CABLE_MODEMS   0/25
CBM   0/46
CDRECORD   0/66
CDROM   0/20
CLASSIC_COMPUTER   0/378
COMICS   0/15
CONSPRCY   0/899
COOKING   42003
COOKING_OLD1   0/24719
COOKING_OLD2   0/40862
COOKING_OLD3   0/37489
COOKING_OLD4   0/35496
COOKING_OLD5   9370
C_ECHO   0/189
C_PLUSPLUS   0/31
DIRTY_DOZEN   0/201
DOORGAMES   0/2333
DOS_INTERNET   0/196
duplikat   6102
ECHOLIST   0/18295
EC_SUPPORT   0/318
ELECTRONICS   0/359
ELEKTRONIK.GER   1534
ENET.LINGUISTIC   0/13
ENET.POLITICS   0/4
ENET.SOFT   0/11701
ENET.SYSOP   34332
ENET.TALKS   0/32
ENGLISH_TUTOR   0/2000
EVOLUTION   0/1335
FDECHO   0/217
FDN_ANNOUNCE   0/7068
FIDONEWS   25122
FIDONEWS_OLD1   0/49742
FIDONEWS_OLD2   0/35949
FIDONEWS_OLD3   0/30874
FIDONEWS_OLD4   0/37224
FIDO_SYSOP   12973
FIDO_UTIL   0/180
FILEFIND   0/209
FILEGATE   0/212
Möte HAM, 16712 texter
 lista första sista föregående nästa
Text 3224, 830 rader
Skriven 2009-09-17 23:00:21 av Amsat List (1:323/120.0)
Ärende: [keps]  orb09260.amsa
=============================
[keps]  orb09260.amsa

Return-Path: <keps-bounces@amsat.org>
X-Rcpt: craig.healy@chowda.com
X-UIDL: 1253241595.9813

SB KEPS @ AMSAT  $ORB09260.O
Orbital Elements  09260.OSCAR

HR AMSAT ORBITAL ELEMENTS FOR OSCAR SATELLITES
FROM WA5QGD FORT WORTH,TX September 17, 2009
Send Subscribe/unsubscribe to KEPS at 
http://www.amsat.org/mailman/listinfo/keps
BID: ORB09260.O
TO ALL RADIO AMATEURS BT

Satellite: AO-07
Catalog number: 07530
Epoch time:      09259.62670615
Element set:    0583
Inclination:      101.4227 deg
RA of node:       280.9347 deg
Eccentricity:    0.0012120
Arg of perigee:   089.5816 deg
Mean anomaly:     270.6639 deg
Mean motion:   12.53576516 rev/day
Decay rate:       -2.7e-07 rev/day^2
Epoch rev:           59417
Checksum:              310

Satellite: FO-29
Catalog number: 24278
Epoch time:      09259.77835131
Element set:    0153
Inclination:      098.5387 deg
RA of node:       121.4465 deg
Eccentricity:    0.0351309
Arg of perigee:   112.9478 deg
Mean anomaly:     250.9134 deg
Mean motion:   13.52944998 rev/day
Decay rate:       -2.0e-08 rev/day^2
Epoch rev:           64613
Checksum:              332

Satellite: SO-33
Catalog number: 25509
Epoch time:      09260.24971166
Element set:     544
Inclination:      031.4321 deg
RA of node:       251.9117 deg
Eccentricity:    0.0354095
Arg of perigee:   063.4049 deg
Mean anomaly:     300.2404 deg
Mean motion:   14.28266268 rev/day
Decay rate:       2.24e-06 rev/day^2
Epoch rev:           56900
Checksum:              281

Satellite: RS-22
Catalog number: 27939
Epoch time:      09259.68851878
Element set:    0893
Inclination:      097.9287 deg
RA of node:       131.1588 deg
Eccentricity:    0.0012972
Arg of perigee:   200.3116 deg
Mean anomaly:     159.7579 deg
Mean motion:   14.63340633 rev/day
Decay rate:       1.05e-06 rev/day^2
Epoch rev:           31895
Checksum:              351

Satellite: VO-52
Catalog number: 28650
Epoch time:      09260.30319209
Element set:     321
Inclination:      097.7349 deg
RA of node:       318.7955 deg
Eccentricity:    0.0028342
Arg of perigee:   089.0168 deg
Mean anomaly:     271.4268 deg
Mean motion:   14.81618052 rev/day
Decay rate:      -1.47e-06 rev/day^2
Epoch rev:           23628
Checksum:              316

/EX
SB KEPS @ AMSAT  $ORB09260.D
Orbital Elements  09260.MICROS

HR AMSAT ORBITAL ELEMENTS FOR THE MICROSATS
FROM WA5QGD FORT WORTH,TX September 17, 2009
Send Subscribe/unsubscribe to KEPS at 
http://www.amsat.org/mailman/listinfo/keps
BID: ORB09260.D
TO ALL RADIO AMATEURS BT

Satellite: AO-16
Catalog number: 20439
Epoch time:      09260.79633904
Element set:     704
Inclination:      098.2905 deg
RA of node:       225.0359 deg
Eccentricity:    0.0009967
Arg of perigee:   255.9114 deg
Mean anomaly:     104.0962 deg
Mean motion:   14.31833241 rev/day
Decay rate:        1.2e-07 rev/day^2
Epoch rev:            2640
Checksum:              289

Satellite: LO-19
Catalog number: 20442
Epoch time:      09260.48882909
Element set:     619
Inclination:      098.2530 deg
RA of node:       231.6465 deg
Eccentricity:    0.0010974
Arg of perigee:   250.5082 deg
Mean anomaly:     109.4933 deg
Mean motion:   14.32067738 rev/day
Decay rate:        2.0e-08 rev/day^2
Epoch rev:            2652
Checksum:              299

Satellite: AO-27
Catalog number: 22825
Epoch time:      09260.27335716
Element set:     341
Inclination:      098.4461 deg
RA of node:       210.8360 deg
Eccentricity:    0.0008249
Arg of perigee:   000.0610 deg
Mean anomaly:     000.0584 deg
Mean motion:   14.29273039 rev/day
Decay rate:       -2.7e-07 rev/day^2
Epoch rev:           83306
Checksum:              267

Satellite: IO-26
Catalog number: 22826
Epoch time:      09260.38731082
Element set:      71
Inclination:      098.4384 deg
RA of node:       211.6560 deg
Eccentricity:    0.0009036
Arg of perigee:   354.7427 deg
Mean anomaly:     005.3663 deg
Mean motion:   14.29526004 rev/day
Decay rate:        5.0e-08 rev/day^2
Epoch rev:           83318
Checksum:              288

Satellite: GO-32
Catalog number: 25397
Epoch time:      09259.82226978
Element set:    0993
Inclination:      098.3248 deg
RA of node:       277.2455 deg
Eccentricity:    0.0001448
Arg of perigee:   025.3266 deg
Mean anomaly:     334.7975 deg
Mean motion:   14.23162460 rev/day
Decay rate:      -1.82e-06 rev/day^2
Epoch rev:           58116
Checksum:              338

Satellite: NO-44
Catalog number: 26931
Epoch time:      09259.86506764
Element set:    0267
Inclination:      067.0517 deg
RA of node:       188.1527 deg
Eccentricity:    0.0006661
Arg of perigee:   274.5655 deg
Mean anomaly:     085.4657 deg
Mean motion:   14.29567289 rev/day
Decay rate:        6.4e-07 rev/day^2
Epoch rev:           41568
Checksum:              355

Satellite: SO-50
Catalog number: 27607
Epoch time:      09260.75466124
Element set:     986
Inclination:      064.5581 deg
RA of node:       103.9513 deg
Eccentricity:    0.0056545
Arg of perigee:   182.6486 deg
Mean anomaly:     177.4328 deg
Mean motion:   14.71458233 rev/day
Decay rate:       -3.1e-07 rev/day^2
Epoch rev:           36229
Checksum:              321

Satellite: CO-55
Catalog number: 27844
Epoch time:      09260.60767456
Element set:     669
Inclination:      098.7142 deg
RA of node:       268.4762 deg
Eccentricity:    0.0009044
Arg of perigee:   236.1882 deg
Mean anomaly:     123.8441 deg
Mean motion:   14.20655870 rev/day
Decay rate:        3.6e-07 rev/day^2
Epoch rev:           32238
Checksum:              326

